logo
Search for airport 
image banner adimage banner adimage banner ad
image banner ad

LLBL - Beilinson Hospital

Located in פ"ת, Israel

ICAO - , IATA -

Data provided by Airmate  

General information

Coordinates: N32°5'13" E34°51'54"
Elevation is 114 feet MSL.
Magnetic variation is 5° East
View others Airports in Tel Aviv District

Operational data

Special qualification required
Current time UTC:
Current local time:
Weather at : LLBG - Tel-Aviv/Ben-Gurion ( 9 km )
METAR: LLBG 171920Z 34004KT CAVOK 26/19 Q1010 NOSIG
TAF: TAF LLBG 171705Z 1718/1818 VRB04KT CAVOK BECMG 1720/1722 9999 SCT020 PROB40 TEMPO 1800/1805 15005KT BKN017 BECMG 1807/1809 31010KT CAVOK BECMG 1815/1817 VRB04KT TX32/1810Z TN23/1803Z
View NOTAMs / SUP AIP / TFR affecting this airport [VIEW]
Communications frequencies: [VIEW]

Runways:

Airport contact information

Address: פ"ת Israel

Satellite view of LLBL